[[{"header":{"parameterUnit":"m.s-1","parameterCategory":1,"la1":30.2992,"la2":30.254,"lo1":-89.0895,"lo2":-89.0443,"dy":0.0025,"dx":0.0025,"nx":19,"ny":19,"refTime":"2026-05-20T21:00:00:Z","depth":0,"parameterNumber":2,"parameterNumberName":"U-component_of_WINDS"},"data":[0,0,0,-3.1497,-3.1497,-3.1493,-3.1493,-3.15,-3.1501,0,0,0,0,0,0,0,0,0,0,0,-3.1505,-3.1505,-3.1497,-3.1497,-3.1493,-3.1493,-3.15,-3.1501,0,0,0,0,0,0,0,0,0,0,0,-3.1505,-3.1505,-3.1505,-3.1497,-3.1493,-3.1493,-3.15,-3.1499,0,0,0,0,0,0,0,0,0,0,-3.1501,-3.1515,-3.1505,-3.1505,-3.1497,-3.1493,-3.1493,-3.1499,-3.1499,-3.1507,0,-3.1516,0,-3.1509,-3.1502,-3.1502,0,0,0,-3.1492,-3.1514,-3.1507,-3.1505,-3.1497,-3.1493,-3.1493,-3.1499,-3.1499,-3.1508,-3.1516,-3.1516,-3.1509,-3.1502,-3.1502,-3.1565,-3.1566,0,0,-3.1492,-3.1508,-3.1507,-3.1508,-3.1509,-3.1493,-3.1493,-3.1499,-3.1509,-3.1516,-3.1516,-3.1509,-3.1502,-3.1502,-3.1565,-3.1565,0,0,0,-3.1496,-3.1508,-3.1501,-3.1508,-3.1506,-3.1493,-3.1493,-3.1509,-3.1505,-3.1516,-3.1509,-3.1502,-3.1502,-3.1564,-3.1565,-3.1605,0,0,0,-3.1496,-3.1511,-3.1501,-3.1511,-3.1506,-3.1507,-3.1503,-3.1504,-3.1504,-3.1509,-3.1502,-3.1503,-3.1563,-3.1565,-3.1603,-3.1621,0,0,0,-3.1503,-3.1511,-3.1513,-3.1512,-3.1511,-3.1507,-3.1503,-3.1504,-3.1501,-3.1502,-3.1503,-3.1563,-3.1564,-3.1601,-3.1618,-3.1641,0,0,0,-3.1515,-3.155,-3.1514,-3.1551,-3.1511,-3.1532,-3.1503,-3.1518,-3.1525,-3.1502,-3.1564,-3.1565,-3.16,-3.1615,-3.1639,-3.1662,-3.1674,0,0,-3.1568,-3.1557,-3.1578,-3.1545,-3.1577,-3.1532,-3.157,-3.1561,-3.1547,-3.156,-3.1561,-3.1604,-3.1617,-3.1641,-3.1738,-3.1747,0,0,0,-3.16,-3.1614,-3.162,-3.1626,-3.162,-3.1616,-3.1599,-3.1596,-3.1606,-3.1557,-3.1619,-3.1627,-3.164,-3.165,-3.1658,-3.1668,-3.1571,-3.1571,-3.1571,-3.1697,-3.1677,-3.1709,-3.1689,-3.1696,-3.1679,-3.1682,-3.1675,-3.1653,-3.1669,-3.1671,-3.1733,-3.1746,-3.1751,-3.1762,-3.1684,-3.1684,-3.1684,-3.1684,-3.1772,-3.1788,-3.1759,-3.178,-3.1759,-3.1776,-3.1761,-3.1746,-3.1758,-3.1729,-3.1739,-3.1707,-3.1762,-3.177,-3.1687,-3.1687,-3.1686,-3.1686,-3.1686,-3.1831,-3.1836,-3.1831,-3.1838,-3.1846,-3.1826,-3.1839,-3.182,-3.1803,-3.1813,-3.1813,-3.1812,-3.1808,-3.1815,-3.1815,-3.1815,-3.1816,-3.1816,-3.1816,-3.1894,-3.1887,-3.1901,-3.1898,-3.1899,-3.1899,-3.1883,-3.1884,-3.188,-3.1865,-3.1865,-3.1841,-3.1772,-3.1754,-3.1819,-3.1818,-3.1818,-3.1818,-3.1818,-3.1973,-3.1952,-3.1973,-3.1974,-3.1969,-3.1978,-3.1954,-3.1958,-3.1957,-3.1964,-3.1938,-3.1891,-3.1878,-3.1872,-3.1856,-3.1944,-3.1944,-3.1944,-3.1944,-3.2021,-3.2014,-3.203,-3.2034,-3.2035,-3.2016,-3.204,-3.2028,-3.2013,-3.2011,-3.1996,-3.1975,-3.1969,-3.196,-3.1951,-3.1936,-3.2042,-3.2042,-3.2042,-3.2068,-3.206,-3.2083,-3.2068,-3.2063,-3.2059,-3.208,-3.2085,-3.2064,-3.2046,-3.2008,-3.2004,-3.197,-3.196,-3.1938,-3.1926,-3.1898,0,0]},{"header":{"parameterUnit":"m.s-1","parameterCategory":1,"la1":30.2992,"la2":30.254,"lo1":-89.0895,"lo2":-89.0443,"dy":0.0025,"dx":0.0025,"nx":19,"ny":19,"refTime":"2026-05-20T21:00:00:Z","depth":0,"parameterNumber":3,"parameterNumberName":"V-component_of_WINDS"},"data":[0,0,0,4.3737,4.3739,4.3864,4.3864,4.4029,4.403,0,0,0,0,0,0,0,0,0,0,0,4.3705,4.3707,4.3736,4.374,4.3864,4.3864,4.4029,4.403,0,0,0,0,0,0,0,0,0,0,0,4.3705,4.3706,4.3708,4.374,4.3864,4.3864,4.4028,4.3932,0,0,0,0,0,0,0,0,0,0,4.381,4.3787,4.3706,4.3708,4.3741,4.3864,4.3864,4.3927,4.3938,4.3976,0,4.4013,0,4.4024,4.4042,4.4043,0,0,0,4.3735,4.3778,4.3807,4.3708,4.3742,4.3864,4.3806,4.3933,4.3945,4.399,4.4015,4.4021,4.4027,4.4043,4.4044,4.4283,4.4284,0,0,4.3728,4.373,4.3799,4.3815,4.3799,4.3803,4.381,4.394,4.3967,4.4015,4.4025,4.403,4.4044,4.4046,4.4282,4.4283,0,0,0,4.3712,4.3726,4.3751,4.3809,4.3831,4.3806,4.3815,4.3961,4.3969,4.4026,4.4032,4.4045,4.4047,4.428,4.4282,4.4352,0,0,0,4.3707,4.3716,4.3748,4.3751,4.3829,4.3898,4.3833,4.396,4.3975,4.4031,4.4045,4.4049,4.4279,4.4281,4.4347,4.4385,0,0,0,4.3695,4.3715,4.3735,4.3751,4.3805,4.3896,4.3911,4.3963,4.3979,4.4043,4.405,4.4278,4.4281,4.4343,4.4378,4.4449,0,0,0,4.3683,4.3794,4.3736,4.3862,4.3804,4.3939,4.391,4.401,4.4074,4.4046,4.4279,4.4282,4.4341,4.4373,4.4445,4.4511,4.4539,0,0,4.3824,4.3811,4.3885,4.3837,4.3983,4.3919,4.4075,4.413,4.4132,4.4232,4.4238,4.4349,4.4377,4.4448,4.4692,4.4715,0,0,0,4.3931,4.3984,4.4022,4.4084,4.413,4.4171,4.4202,4.4222,4.4307,4.4185,4.4393,4.441,4.4452,4.4484,4.4503,4.4538,4.4296,4.4296,4.4296,4.4135,4.4134,4.4256,4.427,4.433,4.4361,4.4409,4.444,4.442,4.447,4.45,4.4648,4.4685,4.47,4.4737,4.4534,4.4534,4.4534,4.4534,4.4343,4.4419,4.439,4.4499,4.4497,4.4587,4.462,4.4603,4.4686,4.4625,4.4662,4.4597,4.4724,4.4757,4.454,4.4539,4.4538,4.4538,4.4537,4.4478,4.4514,4.4537,4.4627,4.4695,4.4703,4.4785,4.4778,4.4773,4.4809,4.484,4.4839,4.4838,4.4824,4.4825,4.4825,4.4826,4.4826,4.4826,4.4609,4.4633,4.4704,4.4762,4.48,4.485,4.4881,4.4918,4.4958,4.4947,4.4947,4.4922,4.4737,4.4691,4.4834,4.4833,4.4832,4.4831,4.4831,4.4823,4.4773,4.4883,4.4922,4.4989,4.5057,4.5047,4.5123,4.5153,4.5193,4.516,4.5024,4.5009,4.4994,4.4956,4.516,4.516,4.516,4.516,4.4937,4.4929,4.504,4.5103,4.5163,4.5166,4.5287,4.5312,4.5329,4.5347,4.5316,4.5265,4.5249,4.5244,4.5223,4.5188,4.5446,4.5446,4.5447,4.5069,4.5067,4.5173,4.5191,4.5243,4.5287,4.5401,4.5472,4.5481,4.5458,4.5361,4.5349,4.5266,4.5239,4.5215,4.5183,4.5118,0,0]}]]